Regional Weather Roundup
Issued by NWS

Home | Current Version | Previous Version | Text Only | Print | Product List | Glossary Off
Versions: 1 2 3 4 5 6 7 8 9 10 11 12 13 14 15 16 17 18 19 20 21 22 23 24 25 26 27 28

000
ASUS45 KCYS 051710
RWRWY

WYOMING REGIONAL WEATHER ROUNDUP
NATIONAL WEATHER SERVICE CHEYENNE WY
1000 AM MST MON DEC 05 2016

NOTE:  "FAIR" INDICATES FEW OR NO CLOUDS BELOW 12,000 FEET
WITH NO SIGNIFICANT WEATHER AND/OR OBSTRUCTIONS TO VISIBILITY.

WYZ001-051800-
YELLOWSTONE NATIONAL PARK

CITY           SKY/WX    TMP DP  RH WIND       PRES   REMARKS
LK YELLOWSTONE   N/A      5  -2  72 VRB7      29.76R WCI  -7
W YELLOWSTONE  NOT AVBL

$$
WYZ002>013-054>058-071-098>099-051800-
NORTHERN WYOMING

CITY           SKY/WX    TMP DP  RH WIND       PRES   REMARKS
JACKSON        FAIR      14  -2  48 W16G30    29.84S WCI  -2
CODY           FLURRIES  18  11  74 N10       29.82R WCI   6
GREYBULL       NOT AVBL
WORLAND        NOT AVBL
SHERIDAN       NOT AVBL
BUFFALO        SNOW      19  13  77 N29G37    29.73R VSB 1/2 WCI   0
GILLETTE       LGT SNOW  20  17  88 N21       29.72R FOG     WCI   4
HULETT         LGT SNOW  21  18  86 NW18G29   29.72R WCI   6
NEWCASTLE      LGT SNOW  23  19  86 NW16G28   29.66R WCI  10

$$
WYZ014>020-022>026-101>103-051800-
CENTRAL WYOMING

CITY           SKY/WX    TMP DP  RH WIND       PRES   REMARKS
BIG PINEY      NOT AVBL
PINEDALE       FAIR      12   1  62 NW15      29.83R WCI  -4
DUBOIS         FAIR      12  -6  44 W31G38    29.72R WCI -10
LANDER         PTSUNNY   21  16  79 S12       29.78R WCI   9
RIVERTON       NOT AVBL
CASPER         SNOW      19  16  88 N23       29.72R VSB 1/4 WCI   2
DOUGLAS        SNOW      25  22  88 NW20      29.68R VSB 1/2 WCI  11

$$
WYZ021-027>030-104>119-051800-
SOUTHERN WYOMING

CITY           SKY/WX    TMP DP  RH WIND       PRES   REMARKS
EVANSTON       NOT AVBL
FORT BRIDGER   FAIR      18   2  49 SW12      29.94R WCI   5
ROCK SPRINGS   NOT AVBL
DIXON          CLOUDY    25  11  54 W16G26    29.85R WCI  13
RAWLINS        FAIR      20   3  48 W37G53    29.71  BLWGSNOWWCI   0
SARATOGA       CLOUDY    23   7  50 W18G26    29.78R WCI   9
LARAMIE        FAIR      25  11  55 W30G40    29.66R WCI   8
CHEYENNE       FAIR      38  22  52 NW24G44   29.64  WCI  27
TORRINGTON     FAIR      39  24  55 N17G26    29.62  WCI  30
PINE BLUFFS    PTSUNNY   43  23  45 W28G40    29.63R

$$




USA.gov is the U.S. government's official web portal to all federal, state and local government web resources and services.